Regional Weather Roundup
Issued by NWS

Home | Current Version | Previous Version | Graphics & Text | Print | Product List | Glossary On
Versions: 1 2 3 4 5 6 7 8 9 10 11 12 13 14 15 16 17 18 19 20 21 22 23 24 25 26 27 28 29 30 31 32 33 34 35 36 37 38 39 40 41 42 43 44 45 46 47 48 49 50
000
ASUS43 KBIS 202120
RWRND

NORTH DAKOTA REGIONAL WEATHER ROUNDUP
NATIONAL WEATHER SERVICE BISMARCK ND
400 PM CDT SAT SEP 20 2014

NOTE: "FAIR" INDICATES FEW OR NO CLOUDS BELOW 12,000 FEET WITH NO
SIGNIFICANT WEATHER AND/OR OBSTRUCTIONS TO VISIBILITY.


NDZ001>003-009>011-017-202200-
NORTHWEST NORTH DAKOTA

CITY           SKY/WX    TMP DP  RH WIND       PRES   REMARKS
WILLISTON      PTSUNNY   71  35  26 NW29      30.07R
MINOT          SUNNY     71  37  28 W30G37    29.95S
MINOT AFB      SUNNY     70  38  31 NW32G41   29.92S
$$

NDZ018>021-031>035-040>046-202200-
SOUTHWEST NORTH DAKOTA

CITY           SKY/WX    TMP DP  RH WIND       PRES   REMARKS
BISMARCK       PTSUNNY   71  43  36 NW25G36   30.00R
DICKINSON      SUNNY     72  37  28 NW21G31   30.06S
GARRISON         N/A     72  38  29 NW23G40   29.98R
HETTINGER ARPT SUNNY     73  31  21 NW32G41   30.09S
$$

NDZ004>008-012>016-024-026-027-054-202200-
NORTHEAST NORTH DAKOTA

CITY           SKY/WX    TMP DP  RH WIND       PRES   REMARKS
GRAND FORKS    PTSUNNY   63  52  67 NW17G28   29.80R
GRND FRKS AFB  MOSUNNY   65  53  65 N17G31    29.82R
DEVILS LAKE    SUNNY     70  46  43 NW30G37   29.83S
$$

NDZ022-023-025-028>030-036>039-047>053-202200-
SOUTHEAST NORTH DAKOTA

CITY           SKY/WX    TMP DP  RH WIND       PRES   REMARKS
FARGO          LGT RAIN  64  53  67 NW24G32   29.83R
JAMESTOWN      MOSUNNY   68  49  50 NW26G33   29.90R
$$



USA.gov is the U.S. government's official web portal to all federal, state and local government web resources and services.